| time (UTC) | temp F | wind direction | speed knots | gust knots | rain 1hr in | rain 24hr in | rain mn in | humidity % | barometer mb |
| 20260506143058 | 59 | 232 | 2.6 | 10.4 | 0.00 | 0.00 | 0.00 | 84 | 1008.5 |
| 20260506141603 | 59 | 302 | 4.3 | 12.2 | 0.00 | 0.00 | 0.00 | 84 | 1008.9 |
| 20260506140057 | 59 | 321 | 5.2 | 9.6 | 0.00 | 0.00 | 0.00 | 83 | 1009.0 |
| 20260506134601 | 59 | 328 | 4.3 | 13.0 | 0.00 | 0.00 | 0.00 | 85 | 1009.3 |
| 20260506133126 | 59 | 305 | 7.0 | 15.6 | 0.00 | 0.00 | 0.00 | 84 | 1009.2 |
| 20260506131558 | 59 | 333 | 4.3 | 13.0 | 0.00 | 0.00 | 0.00 | 86 | 1009.1 |
| 20260506130121 | 58 | 347 | 3.5 | 10.4 | 0.00 | 0.00 | 0.00 | 86 | 1009.0 |
| 20260506124600 | 58 | 233 | 4.3 | 11.3 | 0.00 | 0.00 | 0.00 | 85 | 1009.1 |
| 20260506123057 | 59 | 143 | 2.6 | 10.4 | 0.00 | 0.00 | 0.00 | 84 | 1009.1 |
| 20260506121556 | 59 | 245 | 2.6 | 10.4 | 0.00 | 0.00 | 0.00 | 85 | 1009.4 |
| 20260506114604 | 58 | 330 | 5.2 | 13.0 | 0.00 | 0.00 | 0.00 | 86 | 1009.4 |
| 20260506113056 | 58 | 286 | 4.3 | 11.3 | 0.00 | 0.00 | 0.00 | 87 | 1009.2 |
| 20260506111600 | 57 | 321 | 2.6 | 7.8 | 0.00 | 0.00 | 0.00 | 88 | 1009.1 |
| 20260506110105 | 57 | 294 | 2.6 | 11.3 | 0.00 | 0.00 | 0.00 | 89 | 1009.4 |
| 20260506104636 | 56 | 349 | 3.5 | 13.0 | 0.00 | 0.00 | 0.00 | 90 | 1009.2 |
| 20260506103111 | 55 | 153 | 2.6 | 7.8 | 0.00 | 0.00 | 0.00 | 91 | 1009.1 |
| 20260506101605 | 55 | 18 | 3.5 | 8.7 | 0.00 | 0.00 | 0.00 | 91 | 1009.0 |
| 20260506100100 | 55 | 71 | 1.7 | 11.3 | 0.00 | 0.00 | 0.00 | 91 | 1009.2 |
| 20260506094600 | 55 | 330 | 1.7 | 7.8 | 0.00 | 0.00 | 0.00 | 91 | 1009.2 |
| 20260506093101 | 55 | 169 | 1.7 | 8.7 | 0.00 | 0.00 | 0.00 | 91 | 1009.1 |
| 20260506091603 | 55 | 81 | 2.6 | 8.7 | 0.00 | 0.00 | 0.00 | 90 | 1009.1 |
| 20260506090100 | 56 | 277 | 1.7 | 10.4 | 0.00 | 0.00 | 0.00 | 90 | 1009.3 |
| 20260506084601 | 56 | 314 | 3.5 | 8.7 | 0.00 | 0.00 | 0.00 | 90 | 1009.2 |
| 20260506083059 | 56 | 104 | 4.3 | 12.2 | 0.00 | 0.00 | 0.00 | 90 | 1009.5 |
| 20260506081601 | 55 | 312 | 1.7 | 8.7 | 0.00 | 0.00 | 0.00 | 89 | 1009.4 |
| 20260506080109 | 55 | 345 | 2.6 | 8.7 | 0.00 | 0.00 | 0.00 | 89 | 1009.3 |
| 20260506073057 | 55 | 335 | 1.7 | 9.6 | 0.00 | 0.00 | 0.00 | 89 | 1009.6 |
| 20260506071624 | 55 | 354 | 2.6 | 7.0 | 0.00 | 0.00 | 0.00 | 88 | 1009.7 |
| 20260506061556 | 56 | 303 | 2.6 | 9.6 | 0.00 | 0.00 | 0.00 | 87 | 1009.6 |
| 20260506044611 | 57 | 96 | 3.5 | 10.4 | 0.00 | 0.00 | 0.00 | 85 | 1009.9 |
| 20260506043059 | 57 | 338 | 2.6 | 13.0 | 0.00 | 0.00 | 0.00 | 84 | 1010.0 |
| 20260506041558 | 57 | 49 | 2.6 | 11.3 | 0.00 | 0.00 | 0.00 | 84 | 1010.1 |
| 20260506040100 | 58 | 137 | 2.6 | 13.0 | 0.00 | 0.00 | 0.00 | 83 | 1010.0 |
| 20260506034601 | 58 | 95 | 2.6 | 10.4 | 0.00 | 0.00 | 0.00 | 82 | 1009.9 |
| 20260506033057 | 58 | 156 | 2.6 | 18.2 | 0.00 | 0.00 | 0.00 | 82 | 1010.0 |
| 20260506031600 | 58 | 331 | 2.6 | 10.4 | 0.00 | 0.00 | 0.00 | 82 | 1009.8 |
| 20260506030100 | 59 | 53 | 3.5 | 13.9 | 0.00 | 0.00 | 0.00 | 82 | 1009.8 |
| 20260506024559 | 59 | 94 | 3.5 | 14.8 | 0.00 | 0.00 | 0.00 | 82 | 1009.9 |
| 20260506023059 | 59 | 264 | 3.5 | 14.8 | 0.00 | 0.00 | 0.00 | 82 | 1009.9 |
| 20260506021605 | 59 | 160 | 4.3 | 13.0 | 0.00 | 0.00 | 0.00 | 82 | 1009.9 |
| 20260506020100 | 59 | 98 | 3.5 | 10.4 | 0.00 | 0.00 | 0.00 | 81 | 1010.1 |
| 20260506014612 | 59 | 65 | 4.3 | 13.0 | 0.00 | 0.00 | 0.00 | 79 | 1010.1 |
| 20260506013059 | 59 | 39 | 2.6 | 14.8 | 0.00 | 0.00 | 0.00 | 79 | 1009.8 |
| 20260506011557 | 60 | 344 | 3.5 | 13.9 | 0.00 | 0.00 | 0.00 | 78 | 1009.8 |
| 20260506010103 | 60 | 1 | 5.2 | 13.0 | 0.00 | 0.00 | 0.00 | 78 | 1009.6 |
| 20260506004604 | 60 | 112 | 3.5 | 11.3 | 0.00 | 0.00 | 0.00 | 77 | 1009.4 |
| 20260506003117 | 61 | 325 | 5.2 | 13.0 | 0.00 | 0.00 | 0.00 | 75 | 1009.2 |
| 20260506001623 | 61 | 263 | 3.5 | 12.2 | 0.00 | 0.00 | 0.00 | 75 | 1009.0 |
| 20260506000110 | 61 | 339 | 2.6 | 13.0 | 0.00 | 0.00 | 0.00 | 75 | 1008.7 |
| 20260505234613 | 61 | 324 | 5.2 | 20.0 | 0.00 | 0.00 | 0.00 | 75 | 1008.4 |
| 20260505233055 | 61 | 349 | 6.1 | 20.9 | 0.00 | 0.00 | 0.00 | 75 | 1008.1 |
| 20260505231556 | 61 | 307 | 5.2 | 14.8 | 0.00 | 0.00 | 0.00 | 76 | 1008.0 |
| 20260505230057 | 61 | 150 | 6.1 | 17.4 | 0.00 | 0.00 | 0.00 | 75 | 1007.9 |
| 20260505224600 | 62 | 301 | 6.1 | 14.8 | 0.00 | 0.00 | 0.00 | 74 | 1007.8 |
| 20260505223107 | 62 | 333 | 7.8 | 17.4 | 0.00 | 0.00 | 0.00 | 75 | 1007.6 |
| 20260505221603 | 62 | 337 | 6.1 | 13.0 | 0.00 | 0.00 | 0.00 | 73 | 1007.5 |
| 20260505220100 | 63 | 6 | 5.2 | 17.4 | 0.00 | 0.00 | 0.00 | 71 | 1007.4 |
| 20260505214603 | 64 | 27 | 3.5 | 13.0 | 0.00 | 0.00 | 0.00 | 72 | 1007.5 |
| 20260505213104 | 63 | 345 | 5.2 | 14.8 | 0.00 | 0.00 | 0.00 | 72 | 1007.3 |
| 20260505211629 | 64 | 301 | 5.2 | 13.9 | 0.00 | 0.00 | 0.00 | 71 | 1007.2 |
| 20260505210059 | 63 | 158 | 6.1 | 14.8 | 0.00 | 0.00 | 0.00 | 72 | 1007.3 |
| 20260505204600 | 63 | 292 | 5.2 | 19.1 | 0.00 | 0.00 | 0.00 | 72 | 1007.3 |
| 20260505203126 | 63 | 53 | 4.3 | 13.9 | 0.00 | 0.00 | 0.00 | 72 | 1007.5 |
| 20260505201600 | 64 | 308 | 4.3 | 13.0 | 0.00 | 0.00 | 0.00 | 73 | 1007.6 |
| 20260505200057 | 63 | 144 | 4.3 | 13.9 | 0.00 | 0.00 | 0.00 | 73 | 1007.7 |
| 20260505194602 | 64 | 341 | 3.5 | 11.3 | 0.00 | 0.00 | 0.00 | 71 | 1007.8 |
| 20260505193102 | 65 | 350 | 3.5 | 12.2 | 0.00 | 0.00 | 0.00 | 71 | 1008.2 |
| 20260505191558 | 66 | 330 | 2.6 | 9.6 | 0.00 | 0.00 | 0.00 | 71 | 1008.5 |
| 20260505190058 | 64 | 144 | 5.2 | 13.9 | 0.00 | 0.00 | 0.00 | 72 | 1008.9 |
| 20260505184600 | 65 | 66 | 2.6 | 11.3 | 0.00 | 0.00 | 0.00 | 72 | 1009.0 |
| 20260505183104 | 64 | 45 | 5.2 | 13.0 | 0.00 | 0.00 | 0.00 | 72 | 1009.1 |
| 20260505181559 | 65 | 25 | 4.3 | 8.7 | 0.00 | 0.00 | 0.00 | 70 | 1009.1 |
| 20260505180114 | 64 | 164 | 2.6 | 11.3 | 0.00 | 0.00 | 0.00 | 72 | 1009.3 |
| 20260505174600 | 64 | 341 | 6.1 | 15.6 | 0.00 | 0.00 | 0.00 | 72 | 1009.3 |
| 20260505173057 | 64 | 58 | 3.5 | 9.6 | 0.00 | 0.00 | 0.00 | 73 | 1009.3 |
| 20260505171559 | 65 | 13 | 2.6 | 8.7 | 0.00 | 0.00 | 0.00 | 73 | 1009.5 |
| 20260505170058 | 64 | 334 | 2.6 | 8.7 | 0.00 | 0.00 | 0.00 | 74 | 1009.6 |
| 20260505164602 | 64 | 354 | 4.3 | 9.6 | 0.00 | 0.00 | 0.00 | 73 | 1009.7 |
| 20260505163056 | 66 | 319 | 3.5 | 7.8 | 0.00 | 0.00 | 0.00 | 70 | 1009.6 |
| 20260505161556 | 66 | 314 | 2.6 | 9.6 | 0.00 | 0.00 | 0.00 | 71 | 1009.9 |
| 20260505153059 | 65 | 72 | 2.6 | 5.2 | 0.00 | 0.00 | 0.00 | 73 | 1009.8 |
| 20260505151557 | 64 | 28 | 3.5 | 8.7 | 0.00 | 0.00 | 0.00 | 73 | 1010.2 |